星链-11247 (STARLINK-11247)

导读 | 豆包AI

STARLINK-11247是美国太空探索技术公司SpaceX星链星座的卫星,于2024年8月28日发射升空,属于星链网络低轨组网部署环节的一部分。星链系统旨在为全球用户提供高速互联网接入服务,该卫星加入后进一步扩充了星链低轨卫星星座的规模,提升系统全球覆盖与服务能力。

Basic Information
目录编号:
60720
目录名称:
STARLINK-11247
国际标识:
2024-152A
轨道中心:
EARTH
卫星名称:
星链-11247 (STARLINK-11247)
卫星全名:
星链-11247 (STARLINK-11247)
卫星状态:
在轨 (已飞行635 天)
发射日期:
2024-08-28 UTC
国别 :
美国 (US)
星等 :
--
Orbit Information
数据来源 国际轨道数据
星历时间: 2026-05-24T11:44:56+0800
1天前
查看轨道信息
半长轴: 6737.862km
偏心率: 0.0001159
轨道倾角: 53.158°
近地点辐角 110.913°
升交点赤经 104.552°
平近点角 249.201°
近地点: 358.944km
远地点: 360.506km
周期: 91.737分钟
每日圈数: 15.697108
Detailed Information
卫星平台:
Starlink v2.0 mini
运营商:
太空探索技术公司
运营商所在国:
美国
制造商(研发单位):
太空探索技术公司
制造商所在国:
美国
使用方式:
暂无
Satellite Introduction
星链(Starlink)计划是由太空探索技术公司(SpaceX)提出的一个巨型低轨卫星互联网星座项目,计划在2019年至2024年间在太空搭建由约1.2万颗卫星组成的“星链”网络,其中1584颗将部署在地球上空550千米处的近地轨道,并从2020年开始工作。该卫星仍在工作。
2D Orbit Map
3D Orbit Map
Orbit Altitude Analysis Chart
Orbit Inclination Analysis Chart
Orbit Comprehensive Analysis Chart
View Comprehensive Chart